EW0533 Weather Reports


time (UTC)temp
C
wind
direction
speed
KPH
gust
KPH
rain 1hr
cm
rain 24hr
cm
rain mn
cm
humidity
%
barometer
mb
20260906231524 35 155 4.8 11.3 0.00 0.00 0.00 16 1000.7
20260906230024 35 155 1.6 8.0 0.00 0.00 0.00 16 1000.8
20260906224522 35 156 0.0 11.3 0.00 0.00 0.00 16 1000.8
20260906223034 35 155 4.8 12.9 0.00 0.00 0.00 15 1000.9
20260906221520 35 155 3.2 14.5 0.00 0.00 0.00 16 1001.0
20260906220030 35 155 1.6 11.3 0.00 0.00 0.00 15 1001.2
20260906214525 36 156 0.0 1.6 0.00 0.00 0.00 15 1001.6
20260906213013 35 155 1.6 12.9 0.00 0.00 0.00 14 1002.0
20260906211511 36 155 0.0 1.6 0.00 0.00 0.00 14 1002.1
20260906210007 35 155 4.8 12.9 0.00 0.00 0.00 13 1002.5
20260906204505 35 156 3.2 9.7 0.00 0.00 0.00 13 1002.7
20260906203003 36 155 3.2 9.7 0.00 0.00 0.00 14 1003.0
20260906201502 35 156 1.6 4.8 0.00 0.00 0.00 14 1003.3
20260906200001 36 156 0.0 1.6 0.00 0.00 0.00 14 1003.3
20260906194557 35 155 0.0 1.6 0.00 0.00 0.00 14 1003.7
20260906193056 35 155 0.0 1.6 0.00 0.00 0.00 14 1003.8
20260906191555 35 156 0.0 4.8 0.00 0.00 0.00 13 1004.1
20260906190136 35 155 0.0 4.8 0.00 0.00 0.00 15 1004.3
20260906184547 33 155 4.8 11.3 0.00 0.00 0.00 15 1004.6
20260906183056 33 155 0.0 1.6 0.00 0.00 0.00 17 1004.9
20260906181544 33 155 0.0 1.6 0.00 0.00 0.00 16 1005.4
20260906180038 33 155 0.0 1.6 0.00 0.00 0.00 19 1005.5
20260906174534 33 155 0.0 1.6 0.00 0.00 0.00 22 1005.7
20260906173031 32 155 0.0 1.6 0.00 0.00 0.00 22 1005.9
20260906171528 31 155 0.0 1.6 0.00 0.00 0.00 24 1006.0
20260906170028 29 155 0.0 8.0 0.00 0.00 0.00 28 1006.2
20260906164519 27 155 1.6 8.0 0.00 0.00 0.00 30 1006.3
20260906163019 27 155 1.6 9.7 0.00 0.00 0.00 31 1006.4
20260906161519 27 155 3.2 8.0 0.00 0.00 0.00 31 1006.4
20260906160017 27 155 3.2 8.0 0.00 0.00 0.00 30 1006.5
20260906154516 27 155 3.2 11.3 0.00 0.00 0.00 31 1006.5
20260906153021 27 155 1.6 9.7 0.00 0.00 0.00 31 1006.6
20260906151510 26 155 3.2 9.7 0.00 0.00 0.00 33 1006.6
20260906150015 25 155 3.2 9.7 0.00 0.00 0.00 35 1006.7
20260906144515 23 155 4.8 14.5 0.00 0.00 0.00 34 1006.8
20260906143014 23 155 8.0 16.1 0.00 0.00 0.00 33 1006.6
20260906141506 23 155 1.6 6.4 0.00 0.00 0.00 33 1006.6
20260906140018 22 156 1.6 8.0 0.00 0.00 0.00 35 1006.5
20260906134507 20 155 0.0 6.4 0.00 0.00 0.00 40 1006.5
20260906133004 20 155 0.0 1.6 0.00 0.00 0.00 41 1006.4
20260906131603 19 156 0.0 0.0 0.00 0.00 0.00 41 1006.2
20260906130114 19 156 0.0 4.8 0.00 0.00 0.00 42 1006.2
20260906124557 18 156 0.0 0.0 0.00 0.00 0.00 41 1006.0
20260906123055 19 156 0.0 0.0 0.00 0.00 0.00 40 1006.0
20260906121555 19 155 0.0 0.0 0.00 0.00 0.00 40 1006.0
20260906120053 19 155 0.0 0.0 0.00 0.00 0.00 41 1005.9
20260906114550 20 155 0.0 0.0 0.00 0.00 0.00 41 1005.9
20260906113049 20 156 0.0 0.0 0.00 0.00 0.00 41 1005.8
20260906111553 20 155 0.0 0.0 0.00 0.00 0.00 40 1005.8
20260906110054 21 155 0.0 0.0 0.00 0.00 0.00 39 1005.7
20260906104540 21 155 0.0 0.0 0.00 0.00 0.00 38 1005.8
20260906103039 21 155 0.0 0.0 0.00 0.00 0.00 38 1005.8
20260906101536 22 155 0.0 0.0 0.00 0.00 0.00 37 1005.8
20260906100035 22 155 0.0 0.0 0.00 0.00 0.00 36 1005.7
20260906094534 22 155 0.0 0.0 0.00 0.00 0.00 35 1005.6
20260906093046 22 155 0.0 0.0 0.00 0.00 0.00 35 1005.5
20260906091533 22 155 0.0 1.6 0.00 0.00 0.00 36 1005.4
20260906090055 22 155 0.0 0.0 0.00 0.00 0.00 36 1005.4
20260906084535 22 155 0.0 0.0 0.00 0.00 0.00 36 1005.5
20260906083039 22 155 0.0 0.0 0.00 0.00 0.00 34 1005.4
20260906081529 22 155 0.0 0.0 0.00 0.00 0.00 34 1005.5
20260906080027 23 155 0.0 0.0 0.00 0.00 0.00 33 1005.7
20260906074534 23 156 0.0 0.0 0.00 0.00 0.00 34 1005.6
20260906073025 23 155 0.0 0.0 0.00 0.00 0.00 34 1005.8
20260906071524 23 155 0.0 0.0 0.00 0.00 0.00 34 1005.8
20260906070021 23 156 0.0 1.6 0.00 0.00 0.00 33 1005.8
20260906064517 25 155 0.0 0.0 0.00 0.00 0.00 31 1005.8
20260906063014 25 155 0.0 1.6 0.00 0.00 0.00 30 1005.8
20260906061510 25 155 0.0 3.2 0.00 0.00 0.00 29 1005.4
20260906060009 25 155 0.0 4.8 0.00 0.00 0.00 29 1005.2
20260906054506 26 155 3.2 6.4 0.00 0.00 0.00 29 1005.1
20260906053006 25 155 0.0 1.6 0.00 0.00 0.00 30 1005.1
20260906051507 25 155 0.0 0.0 0.00 0.00 0.00 32 1005.0
20260906050006 25 155 0.0 0.0 0.00 0.00 0.00 31 1004.9
20260906044505 25 155 0.0 0.0 0.00 0.00 0.00 30 1005.0
20260906043006 26 155 0.0 0.0 0.00 0.00 0.00 29 1005.0
20260906041505 26 155 0.0 4.8 0.00 0.00 0.00 28 1004.9
20260906040003 26 155 0.0 4.8 0.00 0.00 0.00 28 1004.9
20260906034505 27 155 0.0 4.8 0.00 0.00 0.00 28 1004.8
20260906033001 27 155 0.0 4.8 0.00 0.00 0.00 27 1004.7
20260906031501 27 155 1.6 6.4 0.00 0.00 0.00 27 1004.5
20260906030001 27 155 1.6 6.4 0.00 0.00 0.00 27 1004.3
20260906024623 27 155 1.6 4.8 0.00 0.00 0.00 27 1004.1
20260906023105 28 155 0.0 3.2 0.00 0.00 0.00 28 1004.0
20260906021559 28 155 0.0 3.2 0.00 0.00 0.00 27 1003.8
20260906014557 30 155 0.0 8.0 0.00 0.00 0.00 25 1003.5
20260906013103 30 155 0.0 4.8 0.00 0.00 0.00 25 1003.5
20260906011601 30 155 4.8 8.0 0.00 0.00 0.00 24 1003.6
20260906010128 31 155 1.6 8.0 0.00 0.00 0.00 24 1003.5
20260906004555 31 155 0.0 6.4 0.00 0.00 0.00 24 1003.5
20260906003055 31 155 0.0 8.0 0.00 0.00 0.00 24 1003.5
20260906001604 32 155 4.8 12.9 0.00 0.00 0.00 23 1003.4
20260906000054 32 155 0.0 9.7 0.00 0.00 0.00 23 1003.4
20260905234553 32 155 0.0 12.9 0.00 0.00 0.00 24 1003.4
20260905233052 33 155 3.2 11.3 0.00 0.00 0.00 22 1003.3